This demonstration page uses our WeatherBlox Daily Observations layout. Learn more.

Left ArrowRight Arrow

34.16533, -84.80231

Hourly Observations for February 10, 2022

Temp ( °F °C ) Dew Point ( °F °C ) Humidity (%) Winds ( mph kmh ) Pressure ( in mb ) Visibility ( mi km ) Precip ( " mm )
12:15 am 00:15 Cloudy 37 3 30 -1 75 75 Calm 30.09 1019 10 16 0.00 0.00
12:35 am 00:35 Cloudy 36 2 32 0 87 87 Calm 30.09 1019 10 16 0.00 0.00
12:55 am 00:55 Mostly Cloudy 37 3 30 -1 75 75 Calm 30.09 1019 10 16 0.00 0.00
1:15 am 01:15 Mostly Cloudy 36 2 30 -1 81 81 Calm 30.09 1019 10 16 0.00 0.00
1:35 am 01:35 Partly Cloudy 36 2 32 0 87 87 Calm 30.09 1019 10 16 0.00 0.00
1:55 am 01:55 Mostly Clear 34 1 30 -1 87 87 Calm 30.10 1019 10 16 0.00 0.00
2:15 am 02:15 Mostly Clear 34 1 30 -1 87 87 Calm 30.10 1019 10 16 0.00 0.00
2:35 am 02:35 Mostly Clear 34 1 30 -1 87 87 Calm 30.09 1019 10 16 0.00 0.00
2:55 am 02:55 Clear 34 1 30 -1 87 87 Calm 30.09 1019 10 16 0.00 0.00
3:15 am 03:15 Clear 34 1 30 -1 87 87 Calm 30.09 1019 10 16 0.00 0.00
3:35 am 03:35 Clear 32 0 30 -1 93 93 Calm 30.10 1019 10 16 0.00 0.00
3:55 am 03:55 Clear 32 0 30 -1 93 93 Calm 30.10 1019 10 16 0.00 0.00
4:15 am 04:15 Clear 32 0 30 -1 93 93 Calm 30.10 1019 10 16 0.00 0.00
4:35 am 04:35 Clear 32 0 30 -1 93 93 Calm 30.10 1019 9 14 0.00 0.00
4:55 am 04:55 Clear 30 -1 30 -1 100 100 Calm 30.11 1020 9 14 0.00 0.00
5:15 am 05:15 Clear 30 -1 28 -2 93 93 Calm 30.11 1020 8 13 0.00 0.00
5:35 am 05:35 Partly Cloudy 30 -1 30 -1 100 100 Calm 30.12 1020 7 11 0.00 0.00
5:55 am 05:55 Partly Cloudy 30 -1 30 -1 100 100 Calm 30.13 1020 8 13 0.00 0.00
6:15 am 06:15 Mostly Clear 30 -1 30 -1 100 100 Calm 30.13 1020 9 14 0.00 0.00
6:35 am 06:35 Mostly Clear 30 -1 28 -2 93 93 Calm 30.14 1021 8 13 0.00 0.00
6:55 am 06:55 Mostly Clear 30 -1 28 -2 93 93 Calm 30.14 1021 7 11 0.00 0.00
7:15 am 07:15 Mostly Clear 30 -1 28 -2 93 93 Calm 30.15 1021 7 11 0.00 0.00
7:35 am 07:35 Sunny 30 -1 28 -2 93 93 Calm 30.15 1021 7 11 0.00 0.00
7:55 am 07:55 Sunny with Mist and Fog 30 -1 28 -2 93 93 Calm 30.15 1021 6 10 0.00 0.00
8:15 am 08:15 Sunny with Mist and Fog 30 -1 28 -2 93 93 Calm 30.16 1021 6 10 0.00 0.00
8:35 am 08:35 Sunny with Mist and Fog 32 0 30 -1 93 93 Calm 30.17 1022 6 10 0.00 0.00
8:55 am 08:55 Sunny with Mist and Fog 34 1 30 -1 87 87 Calm 30.17 1022 6 10 0.00 0.00
9:15 am 09:15 Sunny with Mist and Fog 36 2 32 0 87 87 Calm 30.16 1021 6 10 0.00 0.00
9:35 am 09:35 Hazy 39 4 36 2 87 87 Calm 30.17 1022 6 10 0.00 0.00
9:55 am 09:55 Sunny 43 6 36 2 76 76 Calm 30.16 1021 7 11 0.00 0.00
10:15 am 10:15 Sunny 46 8 34 1 62 62 Calm 30.16 1021 7 11 0.00 0.00
10:35 am 10:35 Sunny 50 10 34 1 54 54 WSW 5 7 30.15 1021 8 13 0.00 0.00
10:55 am 10:55 Sunny 54 12 34 1 47 47 WSW 5 7 30.14 1021 9 14 0.00 0.00
11:15 am 11:15 Sunny 55 13 34 1 44 44 WSW 5 7 30.14 1021 9 14 0.00 0.00
11:35 am 11:35 Sunny 57 14 32 0 39 39 VRB 3 6 30.14 1021 10 16 0.00 0.00
11:55 am 11:55 Sunny 59 15 30 -1 34 34 W 7 11 30.13 1020 10 16 0.00 0.00
12:15 pm 12:15 Sunny 61 16 28 -2 29 29 WSW 13 20 30.11 1020 10 16 0.00 0.00
12:35 pm 12:35 Sunny 63 17 28 -2 27 27 WSW 9 15 30.10 1019 10 16 0.00 0.00
12:55 pm 12:55 Sunny 63 17 28 -2 27 27 W 10 17 30.09 1019 9 14 0.00 0.00
1:15 pm 13:15 Sunny 63 17 27 -3 25 25 W 12 19 30.08 1019 10 16 0.00 0.00
1:35 pm 13:35 Sunny 64 18 27 -3 24 24 W 16 26 30.07 1018 10 16 0.00 0.00
1:55 pm 13:55 Sunny 64 18 27 -3 24 24 W 9 15 30.06 1018 10 16 0.00 0.00
2:15 pm 14:15 Sunny 64 18 27 -3 24 24 WSW 10 17 30.05 1018 9 14 0.00 0.00
2:35 pm 14:35 Sunny 64 18 25 -4 22 22 W 15 24 30.04 1017 10 16 0.00 0.00
2:55 pm 14:55 Sunny 64 18 25 -4 22 22 W 13 20 30.04 1017 10 16 0.00 0.00
3:15 pm 15:15 Sunny 64 18 23 -5 21 21 W 15 24 30.03 1017 10 16 0.00 0.00
3:35 pm 15:35 Sunny 64 18 23 -5 21 21 W 12 19 30.03 1017 10 16 0.00 0.00
3:55 pm 15:55 Sunny 64 18 25 -4 22 22 W 12 19 30.03 1017 10 16 0.00 0.00
4:15 pm 16:15 Sunny 64 18 25 -4 22 22 W 12 19 30.03 1017 10 16 0.00 0.00
4:35 pm 16:35 Sunny 64 18 25 -4 22 22 W 12 19 30.03 1017 10 16 0.00 0.00
4:55 pm 16:55 Sunny 64 18 27 -3 24 24 W 9 15 30.02 1017 10 16 0.00 0.00
5:15 pm 17:15 Sunny 64 18 27 -3 24 24 W 8 13 30.02 1017 9 14 0.00 0.00
5:35 pm 17:35 Sunny 63 17 27 -3 25 25 W 7 11 30.03 1017 10 16 0.00 0.00
5:55 pm 17:55 Sunny 63 17 27 -3 25 25 W 3 6 30.03 1017 10 16 0.00 0.00
6:15 pm 18:15 Sunny 61 16 28 -2 29 29 Calm 30.03 1017 10 16 0.00 0.00
6:35 pm 18:35 Clear 59 15 27 -3 29 29 Calm 30.04 1017 10 16 0.00 0.00
6:55 pm 18:55 Clear 55 13 28 -2 36 36 Calm 30.04 1017 10 16 0.00 0.00
7:15 pm 19:15 Mostly Clear 55 13 28 -2 36 36 Calm 30.04 1017 10 16 0.00 0.00
7:35 pm 19:35 Mostly Clear 52 11 30 -1 44 44 Calm 30.06 1018 10 16 0.00 0.00
7:55 pm 19:55 Clear 50 10 30 -1 47 47 Calm 30.06 1018 9 14 0.00 0.00
8:15 pm 20:15 Mostly Clear 48 9 30 -1 50 50 Calm 30.06 1018 10 16 0.00 0.00
8:35 pm 20:35 Mostly Clear 48 9 32 0 54 54 Calm 30.06 1018 10 16 0.00 0.00
8:55 pm 20:55 Clear 46 8 32 0 57 57 Calm 30.07 1018 10 16 0.00 0.00
9:15 pm 21:15 Clear 45 7 32 0 61 61 Calm 30.08 1019 10 16 0.00 0.00
9:35 pm 21:35 Mostly Clear 45 7 30 -1 57 57 Calm 30.09 1019 10 16 0.00 0.00
9:55 pm 21:55 Clear 43 6 32 0 66 66 Calm 30.09 1019 10 16 0.00 0.00
10:15 pm 22:15 Mostly Clear 43 6 32 0 66 66 Calm 30.08 1019 10 16 0.00 0.00
10:35 pm 22:35 Mostly Clear 41 5 32 0 70 70 Calm 30.08 1019 10 16 0.00 0.00
10:55 pm 22:55 Mostly Clear 41 5 32 0 70 70 Calm 30.08 1019 10 16 0.00 0.00
11:15 pm 23:15 Mostly Clear 41 5 32 0 70 70 Calm 30.08 1019 10 16 0.00 0.00
11:35 pm 23:35 Clear 39 4 32 0 75 75 Calm 30.09 1019 10 16 0.00 0.00
11:55 pm 23:55 Clear 39 4 32 0 75 75 Calm 30.09 1019 10 16 0.00 0.00

Powered by AerisWeather